Regional Weather Roundup
Issued by NWS Midland/Odessa, TX

Skip options and go directly to product.
Home | Oldest Version | Next Version | Current Version | All | Text Only | Save Text | Print | Product List | Glossary On

Skip product version selection by date and time.   
965
ASUS44 KMAF 040810
RWRMAF
MIDLAND AREA WEATHER ROUNDUP
NATIONAL WEATHER SERVICE MIDLAND TX
300 AM CDT FRI SEP 04 2015

...IN SOUTHWEST TEXAS AND SOUTHEAST NEW MEXICO...

CITY           SKY/WX    TMP DP  RH WIND       PRES   REMARKS
ALPINE         CLEAR     70  53  54 SW5       30.09S
ANDREWS        FAIR      70  53  55 S6        29.96F
ARTESIA        PTCLDY    77  50  38 S8        29.96F
BIG SPRING     FAIR      75  55  50 SE9       29.95S
CARLSBAD       MOCLDY    78  48  34 SE3       29.94F
DRYDEN           N/A     81  60  48 VRB6      29.90S
FORT STOCKTON  CLEAR     72  51  47 S8        29.94F
GUAD PASS      MOCLDY    73  45  36 NE9       30.10F
HOBBS            N/A     68  52  56 CALM      29.99F
MARFA          CLEAR     59  48  67 N5        30.08F
MIDLAND AIRPK  CLEAR     76  55  48 SE3       29.95S
MIDLAND INTL   CLEAR     73  55  53 SE6       29.94S
ODESSA         CLEAR     74  51  44 SE6       29.95S
PECOS          CLEAR     72  49  43 E8        29.91S
PRESIDIO       FAIR      83  55  38 MISG      29.90F
SEMINOLE       CLEAR     70  51  51 S3        29.98F
SNYDER         CLEAR     76  60  58 SE13      29.94S
WINK           CLEAR     71  54  54 E6        29.92S
$$
...OTHER STATIONS IN TEXAS...

CITY           SKY/WX    TMP DP  RH WIND       PRES   REMARKS
ABILENE        CLEAR     76  63  64 S10       29.92S
AMARILLO       CLOUDY    76  55  48 S16       29.97S
AUSTIN         PTCLDY    73  71  93 S5        29.91S
BROWNSVILLE    CLEAR     78  76  93 SE6       29.87F
CORPUS CHRISTI PTCLDY    78  75  90 S6        29.87S
DALLAS FTW     CLEAR     82  68  62 SE8       29.89S
DEL RIO        CLEAR     80  67  64 E8        29.87S
EL PASO        NOT AVBL
HOUSTON INT    PTCLDY    76  74  93 CALM      29.90R
LUBBOCK        MOCLDY    72  56  57 S10       29.96F
SAN ANGELO     CLEAR     78  63  59 S10       29.90F
SAN ANTONIO    MOCLDY    79  73  82 S9        29.92S
WACO           CLEAR     79  71  76 S10       29.90F
WICHITA FALLS  NOT AVBL
$$
...OTHER LOCATIONS IN NEW MEXICO...

CITY           SKY/WX    TMP DP  RH WIND       PRES   REMARKS
ALAMAGORDO     PTCLDY    68  48  49 N5        30.00F
ALBUQUERQUE    MOCLDY    71  49  45 SE6       30.08F
CANNON AFB     MOCLDY    74  51  44 S7        30.01S
CLOVIS         MOCLDY    73  50  43 S7        30.02F
HOLLOMAN AFB   MOCLDY    70  51  50 E3        29.98F
ROSWELL        PTCLDY    80  47  31 S13       29.95F
RUIDOSO        PTCLDY    63  46  55 NW3       30.20F
SANTA FE       PTCLDY    67  44  43 SW5       30.13S
TRUTH OR CONSE MOCLDY    67  56  67 NW9       30.05F
TUCUMCARI      PTCLDY    73  48  41 S10       29.95F
$$

USA.gov is the U.S. government's official web portal to all federal, state and local government web resources and services.